Погода в Георгиевке

Россия / Хабаровский край     47°57′21″N   135°14′44″E
темп.,
°C
ветер,
м/с
пор.,
м/с
влажн.,
%
обл.,
%
осадки,
мм/ч
давл.,
гПа
погр.,
м
19 июня, сб
сб1901:00+15ю3794100 0.2 1003163
04:00+14юв2296100 0.9 100335
07:00+16св4997100 1.1 1004332
10:00+19в3483100 2.4 1004339
13:00+20ю1271100 1.1 1004647
16:00+21сз226798 1.2 1003311
19:00+22с2272100 0.1 100260
22:00+15ю2378100 0.2 100347
20 июня, вс
вс2001:00+13зсз1174100 0.0 100412
04:00+12в2271100 0.0 100515
07:00+13юв1379100 0.0 1006121
10:00+17ссв2268100 0.0 1005596
13:00+20св2448100 0.0 10051493
16:00+22св3556100 0.0 10041142
19:00+21св356695 0.0 1004107
22:00+14вюв2366100 0.0 100626
21 июня, пн
пн2101:00+12сз116057 0.0 100710
04:00+9ююз11685 0.0 100710
07:00+11ююз01704 0.0 100867
10:00+17ссв11600 0.0 1009511
13:00+22св244322 0.0 10071525
16:00+22ссз335140 0.0 1006725
19:00+21сз237164 0.0 100668
22:00+15ю01795 0.0 100811
22 июня, вт
вт2201:00+13юз22855 0.0 100811
04:00+11ююз33895 0.0 100932
07:00+13ююз3587100 0.0 1010138
10:00+19юз456730 0.0 1010477
13:00+23зюз565780 0.0 1009991
16:00+24з4554100 0.0 10081175
19:00+22зюз347493 0.0 100896
22:00+17юз227797 0.0 100914
23 июня, ср
ср2301:00+15юз348055 0.0 100949
04:00+15ююз4773100 0.0 1009159
07:00+15ююз4980100 0.0 1010233
10:00+21юз5969100 0.0 1010548
13:00+24зюз5757100 0.0 10091162
16:00+26з5761100 0.0 10081467
19:00+23зюз127560 0.1 100813
22:00+19з3589100 0.7 1009106